User: anonymous   Login
Location: Unspecified
(0.0000°N, 0.0000°E)
Time: 19:59:18
(UTC+00:00)
Language:

SEEDS - Orbit

View from above orbital plane
View from above orbital plane
View from above satellite
View from above satellite

Ground track
Ground track

The orbit data is extracted from the following two-line orbital elements,

1 32791U 08021J   17144.13848245 +.00000398 +00000-0 +46482-4 0  9993
2 32791 097.5652 173.7977 0012218 228.4789 131.5382 14.90200720491566
Epoch (UTC): 24 May 2017 03:19:24
Eccentricity: 0.0012218
inclination: 97.5652°
perigee height: 589 km
apogee height: 606 km
right ascension of ascending node: 173.7977°
argument of perigee: 228.4789°
revolutions per day: 14.90200720
mean anomaly at epoch: 131.5382°
orbit number at epoch: 49156

The dashed part of the orbit path shows where the satellite is in the earth's shadow,  

DLR